HST 1 20580U 90037B 12035.06600358 .00001502 00000-0 98906-4 0 9379 2 20580 028.4712 301.0061 0003481 070.7555 289.3392 15.02159347994541 ISS (ZARYA) 1 25544U 98067A 12035.60076194 .00010727 00000-0 14200-3 0 9474 2 25544 051.6423 072.1323 0020415 006.0811 132.9157 15.58681808757185 CXO 1 25867U 99040B 12036.70833333 -.00000570 00000-0 00000+0 0 6980 2 25867 071.3037 014.6261 8739544 277.8126 359.9667 00.37803937 8658